Zurück zum Katalog

TITAN 3C TRANSTAGE R/B

AktivMEO
NORAD 12932·ROCKET BODY·🇺🇸 United States

Gestartet Oct 31, 1981 von Cape Canaveral Space Force Station

Loading…

Nächste Überflüge (nächste 24 Stunden)

TLE

AktuellSource: Space-Track

Epoche: Sep 13, 2026, 23:08 UTC

1 12932U 81107C   26256.96417943  .00000035  00000-0  00000-0 0  9996
2 12932   5.3190   7.6833 0999109 116.7453 253.8720  0.99593373 27103

Verfolge TITAN 3C TRANSTAGE R/B in Echtzeit mit AllMySat

Download on the App Store